Regional Weather Roundup
Issued by NWS New Orleans/Baton Rouge, LA

Home | Current Version | Previous Version | Text Only | Print | Product List | Glossary On
Versions: 1 2 3 4 5 6 7 8 9 10 11 12 13 14 15 16 17 18 19 20 21 22 23 24 25 26 27 28 29 30 31 32 33 34 35 36 37 38 39 40 41 42 43 44 45 46 47 48 49 50
470
ASUS44 KLIX 250301
RWRLIX
NEW ORLEANS REGIONAL WEATHER ROUNDUP
NATIONAL WEATHER SERVICE NEW ORLEANS LA
1000 PM CDT THU APR 24 2014

NOTE: "FAIR" INDICATES FEW OR NO CLOUDS BELOW 12,000 FEET WITH NO
      SIGNIFICANT WEATHER AND/OR OBSTRUCTIONS TO VISIBILITY.
      SKY/WX - SKY CONDITION AND SIGNIFICANT WEATHER.
      TMP - AIR TEMPERATURE.     DP    - DEWPOINT TEMPERATURE.
      RH  - RELATIVE HUMIDITY.   PRES  - PRESSURE.
      HI  - HEAT INDEX.          WCI   - WIND CHILL INDEX.

*  THESE STATIONS ARE NOT NWS OR FAA STATIONS AND ARE NOT UNDER
   NWS QUALITY CONTROL.

LAZ038-040-048-061>063-065>067-069-250400-
SOUTHEAST LOUISIANA

CITY           SKY/WX    TMP DP  RH WIND       PRES   REMARKS
N.O. AUDUBON     N/A     73  67  81 MISG        N/A
N.O. INTL ARPT PTCLDY    72  67  84 S9        29.93R
N.O. LAKEFRONT CLEAR     72  66  81 S10       29.93R
N.O. DOWNTOWN*   N/A     75  63  64 S9        29.93S
SLIDELL        CLEAR     73  66  78 S10       29.91R
BATON ROUGE    CLOUDY    74  65  73 S20       29.91R
BOOTHVILLE     CLOUDY    72  68  87 S9        29.95R
BELLE CHASSE   MOCLDY    70  64  81 S7        29.93R
BOGALUSA*        N/A     73  65  77 S8        29.92R
GALLIANO*      NOT AVBL
NEW ROADS*     NOT AVBL
GONZALES*        N/A     71  67  88 SW3       29.92R
HAMMOND*       NOT AVBL
HOUMA*         NOT AVBL
PORT FOURCHON* MOCLDY    73  70  88 S5        29.97R

$$

MSZ070-080>082-250400-
SOUTHERN MISSISSIPPI

CITY           SKY/WX    TMP DP  RH WIND       PRES   REMARKS
MCCOMB         CLOUDY    72  65  78 SW7       29.90R
GULFPORT       CLEAR     74  66  76 S7        29.92S
BILOXI         CLEAR     72  67  85 S12       29.92S
PASCAGOULA     CLOUDY    71  66  84 S5        29.94R

$$

COASTAL OBSERVATIONS
LAKE AND NEARSHORE STATIONS

STATION/POSITION TIME  TEMP    WIND        PRES    WAVE
                       AIR SEA DIR/SP/G            HT/PER
                 (UTC) (F)     (DEG/KT/KT) (MB)    (FT/S)
PASCAGOULA       0200   72     190/ 12/ 16 1013.0
WAVELAND YACHT   0200   72 78  210/  9/ 13 1012.3
GRAND ISLE       0200   73 73  190/  4/  6 1014.4
SOUTHWEST PASS   0200   71 62  170/  7/  8 1014.2
NEW CANAL        0200   73 72  210/  6/  9 1013.7
SHELL BEACH      0200   72 70  180/  8/ 11 1013.2

OFFSHORE STATIONS

STATION/POSITION TIME  TEMP    WIND        PRES    WAVE
                       AIR SEA DIR/SP/G            HT/PER
                 (UTC) (F)     (DEG/KT/KT) (MB)    (FT/S)
64 S DAUPHIN ISL 0153   72 72  180/  8/ 10 1014.3

$$




USA.gov is the U.S. government's official web portal to all federal, state and local government web resources and services.